Location: Unspecified
(41.9031°N, 12.4386°E)
Time: 03:33:01
(UTC+02:00)

ISS - Pass Details

Date: 01 July 2020
Orbit: 417 x 421 km, 51.6° (Epoch: 08 July)

Event Time Altitude Azimuth Distance (km) Brightness Sun altitude
Exits shadow 04:07:34 26° 233° (SW) 850 -2.8 -13.7°
Maximum altitude 04:09:18 88° 142° (SE) 421 -3.8 -13.4°
Drops below altitude 10° 04:12:39 10° 56° (NE) 1,496 0.4 -13.0°
Sets 04:14:45 0° 56° (NE) 2,363 1.8 -12.8°
